User: anonymous   Login
Location: Unspecified
(0.0000°N, 0.0000°E)
Time: 01:05:23
(UTC+00:00)
Language:

TBA - TO BE ASSIGNED - Orbit

View from above orbital plane
View from above orbital plane
View from above satellite
View from above satellite

Ground track
Ground track

The orbit is defined by the following mean orbital elements,

1 68929U          26145.50942017 +.00000000 +00000-0 -13492-2 0 00005
2 68929  51.8745 177.7486 0022444  67.8300 292.5062 15.29422764    04
Epoch (UTC): 25 May 2026 12:13:33
Eccentricity: 0.0022444
inclination: 51.8745°
perigee height: 462 km
apogee height: 493 km
right ascension of ascending node: 177.7486°
argument of perigee: 67.8300°
revolutions per day: 15.29422764
mean anomaly at epoch: 292.5062°

The dashed part of the orbit path shows where the satellite is in the earth's shadow,  

DLR